Location: Newark
(46.7636°N, 1.8358°W)
Time: 17:55:50
(UTC+00:00)

Vanguard 1 Rocket - Pass Details

Date: 26 October 2019
Orbit: 651 x 4225 km, 34.3° (Epoch: 16 November)

Event Time Altitude Azimuth Distance (km) Brightness Sun altitude
Rises 08:23:47 0° 215° (SW) 4,391 10.9 14.9°
Reaches altitude 10° 08:26:33 10° 205° (SSW) 3,775 10.8 15.2°
Maximum altitude 08:35:38 34° 145° (SE) 3,353 11.9 16.5°
Drops below altitude 10° 08:51:09 10° 90° (E) 6,475 12.6 18.4°
Sets 08:57:51 0° 84° (E) 7,963 12.8 19.3°
